GW1010 Weather Reports


Display with metric or nautical units.
time (UTC)temp
F
wind
direction
speed
MPH
gust
MPH
rain 1hr
in
rain 24hr
in
rain mn
in
humidity
%
barometer
mb
20260507213528 91 171 0.0 3.0 0.00 0.00 0.00 35 1015.5
20260507213053 90 160 1.0 3.0 0.00 0.00 0.00 34 1015.6
20260507212528 90 177 1.0 2.0 0.00 0.00 0.00 35 1015.7
20260507212025 90 174 1.0 4.0 0.00 0.00 0.00 33 1015.7
20260507211536 89 148 1.0 5.0 0.00 0.00 0.00 36 1015.8
20260507211030 89 173 0.0 6.0 0.00 0.00 0.00 37 1015.9
20260507210530 89 314 2.0 6.0 0.00 0.00 0.00 37 1016.0
20260507210050 89 350 2.0 6.0 0.00 0.00 0.00 36 1016.0
20260507205528 89 316 2.0 6.0 0.00 0.00 0.00 35 1016.0
20260507205028 91 328 1.0 6.0 0.00 0.00 0.00 36 1016.0
20260507204541 90 295 0.0 4.0 0.00 0.00 0.00 35 1016.1
20260507204028 90 162 1.0 4.0 0.00 0.00 0.00 34 1016.1
20260507203528 90 321 1.0 5.0 0.00 0.00 0.00 35 1016.2
20260507203045 89 178 0.0 5.0 0.00 0.00 0.00 37 1016.2
20260507202528 89 351 2.0 5.0 0.00 0.00 0.00 36 1016.2
20260507202031 89 307 0.0 4.0 0.00 0.00 0.00 37 1016.4
20260507201541 88 172 0.0 3.0 0.00 0.00 0.00 40 1016.4
20260507201028 87 4 1.0 6.0 0.00 0.00 0.00 40 1016.5
20260507200528 86 0 1.0 6.0 0.00 0.00 0.00 38 1016.6
20260507200046 87 307 2.0 6.0 0.00 0.00 0.00 39 1016.7
20260507195528 87 0 0.0 4.0 0.00 0.00 0.00 41 1016.7
20260507195028 87 159 1.0 4.0 0.00 0.00 0.00 41 1016.7
20260507194611 86 208 0.0 4.0 0.00 0.00 0.00 41 1016.8
20260507194027 85 0 0.0 5.0 0.00 0.00 0.00 42 1016.9
20260507193527 85 316 0.0 5.0 0.00 0.00 0.00 43 1017.0
20260507193044 85 314 2.0 5.0 0.00 0.00 0.00 41 1017.1
20260507192528 85 350 0.0 5.0 0.00 0.00 0.00 43 1017.1
20260507192028 84 333 0.0 5.0 0.00 0.00 0.00 46 1017.2
20260507191543 83 288 0.0 6.0 0.00 0.00 0.00 46 1017.3
20260507191030 83 323 1.0 6.0 0.00 0.00 0.00 44 1017.4
20260507190528 83 333 1.0 4.0 0.00 0.00 0.00 45 1017.4
20260507190042 83 318 1.0 4.0 0.00 0.00 0.00 44 1017.4
20260507185528 83 327 1.0 4.0 0.00 0.00 0.00 45 1017.4
20260507185028 83 44 1.0 3.0 0.00 0.00 0.00 46 1017.6
20260507184544 83 319 0.0 2.0 0.00 0.00 0.00 46 1017.6
20260507184027 82 228 0.0 3.0 0.00 0.00 0.00 47 1017.7
20260507183527 81 0 1.0 3.0 0.00 0.00 0.00 49 1017.7
20260507183046 80 305 1.0 3.0 0.00 0.00 0.00 50 1017.7
20260507182528 80 67 2.0 4.0 0.00 0.00 0.00 49 1017.9
20260507182028 79 293 0.0 5.0 0.00 0.00 0.00 49 1017.7
20260507181552 78 357 1.0 5.0 0.00 0.00 0.00 53 1017.8
20260507181033 77 315 2.0 5.0 0.00 0.00 0.00 54 1017.8
20260507180529 77 13 1.0 4.0 0.00 0.00 0.00 55 1017.9
20260507180043 76 308 1.0 4.0 0.00 0.00 0.00 54 1017.9
20260507175530 76 0 1.0 3.0 0.00 0.00 0.00 57 1017.9
20260507175032 75 314 1.0 3.0 0.00 0.00 0.00 57 1017.9
20260507174547 74 304 0.0 3.0 0.00 0.00 0.00 58 1017.9
20260507174029 73 329 1.0 4.0 0.00 0.00 0.00 59 1018.0
20260507173528 73 0 0.0 4.0 0.00 0.00 0.00 62 1018.1
20260507173108 72 304 1.0 4.0 0.00 0.00 0.00 61 1018.1
20260507172528 72 318 1.0 4.0 0.00 0.00 0.00 63 1018.2
20260507172028 71 354 0.0 5.0 0.00 0.00 0.00 64 1018.3
20260507171548 70 311 2.0 5.0 0.00 0.00 0.00 65 1018.4
20260507171028 70 0 2.0 5.0 0.00 0.00 0.00 64 1018.4
20260507170528 70 328 0.0 3.0 0.00 0.00 0.00 66 1018.5
20260507170043 69 316 0.0 5.0 0.00 0.00 0.00 67 1018.4
20260507165528 68 295 1.0 5.0 0.00 0.00 0.00 69 1018.5
20260507165028 67 297 2.0 5.0 0.00 0.00 0.00 69 1018.6
20260507164550 67 321 2.0 5.0 0.00 0.00 0.00 70 1018.6
20260507164029 66 18 1.0 6.0 0.00 0.00 0.00 73 1018.7
20260507163529 65 273 2.0 6.0 0.00 0.00 0.00 72 1018.7
20260507163047 64 321 1.0 6.0 0.00 0.00 0.00 74 1018.8
20260507162528 64 321 2.0 5.0 0.00 0.00 0.00 75 1018.7
20260507162030 63 0 1.0 5.0 0.00 0.00 0.00 76 1018.8
20260507161602 63 330 2.0 5.0 0.00 0.00 0.00 78 1018.7
20260507161028 62 319 1.0 5.0 0.00 0.00 0.00 79 1018.8
20260507160528 61 332 2.0 5.0 0.00 0.00 0.00 81 1018.8
20260507160045 61 0 0.0 2.0 0.00 0.00 0.00 84 1018.8
20260507155528 59 0 0.0 2.0 0.00 0.00 0.00 86 1018.9
20260507155028 58 0 0.0 2.0 0.00 0.00 0.00 89 1018.8
20260507154544 57 163 1.0 2.0 0.00 0.00 0.00 91 1018.9
20260507154029 56 0 0.0 2.0 0.00 0.00 0.00 92 1019.0
20260507153527 55 0 0.0 2.0 0.00 0.00 0.00 94 1019.0
20260507153048 54 0 0.0 2.0 0.00 0.00 0.00 95 1019.0
20260507152530 53 162 0.0 2.0 0.00 0.00 0.00 95 1019.1
20260507152028 53 163 0.0 3.0 0.00 0.00 0.00 95 1019.1
20260507151546 52 163 1.0 3.0 0.00 0.00 0.00 95 1019.2
20260507151028 52 162 0.0 0.0 0.00 0.00 0.00 95 1019.2
20260507150533 52 0 0.0 0.0 0.00 0.00 0.00 95 1019.2
20260507150047 51 0 0.0 0.0 0.00 0.00 0.00 95 1019.1
20260507145527 51 0 0.0 0.0 0.00 0.00 0.00 96 1019.2
20260507145027 51 0 0.0 0.0 0.00 0.00 0.00 96 1019.1
20260507144547 51 0 0.0 0.0 0.00 0.00 0.00 96 1019.2
20260507144029 51 0 0.0 0.0 0.00 0.00 0.00 96 1019.2
20260507143528 51 0 0.0 0.0 0.00 0.00 0.00 96 1019.3
20260507143047 51 0 0.0 0.0 0.00 0.00 0.00 96 1019.3
20260507142528 50 0 0.0 0.0 0.00 0.00 0.00 96 1019.2
20260507142029 50 0 0.0 0.0 0.00 0.00 0.00 96 1019.1
20260507141611 50 0 0.0 0.0 0.00 0.00 0.00 96 1019.1
20260507141028 49 0 0.0 0.0 0.00 0.00 0.00 96 1019.2
20260507140528 49 0 0.0 0.0 0.00 0.00 0.00 96 1019.2
20260507140040 48 0 0.0 0.0 0.00 0.00 0.00 96 1019.2
20260507135528 47 0 0.0 0.0 0.00 0.00 0.00 96 1019.1
20260507135028 46 0 0.0 0.0 0.00 0.00 0.00 96 1019.0
20260507134544 45 0 0.0 0.0 0.00 0.00 0.00 96 1019.0
20260507134028 45 0 0.0 0.0 0.00 0.00 0.00 95 1019.0
20260507133528 45 0 0.0 0.0 0.00 0.00 0.00 95 1018.9
20260507133043 45 0 0.0 0.0 0.00 0.00 0.00 95 1019.0
20260507132534 45 0 0.0 0.0 0.00 0.00 0.00 95 1019.0
20260507132030 45 0 0.0 0.0 0.00 0.00 0.00 95 1018.9
20260507131544 45 0 0.0 0.0 0.00 0.00 0.00 95 1018.9
20260507131030 45 0 0.0 0.0 0.00 0.00 0.00 95 1018.9
20260507130532 45 0 0.0 0.0 0.00 0.00 0.00 95 1018.8
20260507130041 45 0 0.0 0.0 0.00 0.00 0.00 95 1018.8
20260507125532 45 0 0.0 0.0 0.00 0.00 0.00 95 1018.8
20260507125029 45 0 0.0 0.0 0.00 0.00 0.00 95 1018.8
20260507124535 45 0 0.0 0.0 0.00 0.00 0.00 95 1018.8
20260507124028 46 0 0.0 0.0 0.00 0.00 0.00 95 1018.9
20260507123528 46 0 0.0 0.0 0.00 0.00 0.00 95 1018.8
20260507123040 46 0 0.0 0.0 0.00 0.00 0.00 95 1018.9
20260507122528 46 0 0.0 0.0 0.00 0.00 0.00 95 1018.8
20260507122028 46 0 0.0 0.0 0.00 0.00 0.00 95 1018.8
20260507121545 46 0 0.0 0.0 0.00 0.00 0.00 95 1018.9
20260507121029 46 0 0.0 0.0 0.00 0.00 0.00 95 1018.9
20260507120528 46 0 0.0 0.0 0.00 0.00 0.00 95 1018.9
20260507120048 46 0 0.0 0.0 0.00 0.00 0.00 95 1018.9
20260507115528 46 0 0.0 0.0 0.00 0.00 0.00 95 1018.9
20260507115029 47 0 0.0 0.0 0.00 0.00 0.00 95 1018.9
20260507114539 47 0 0.0 0.0 0.00 0.00 0.00 94 1018.9
20260507114028 47 0 0.0 0.0 0.00 0.00 0.00 94 1019.0
20260507113525 47 0 0.0 0.0 0.00 0.00 0.00 94 1019.0
20260507113042 47 0 0.0 0.0 0.00 0.00 0.00 94 1019.0
20260507112528 47 0 0.0 0.0 0.00 0.00 0.00 94 1019.1
20260507112028 47 0 0.0 0.0 0.00 0.00 0.00 94 1019.0
20260507111542 48 0 0.0 0.0 0.00 0.00 0.00 94 1018.9
20260507111027 48 0 0.0 0.0 0.00 0.00 0.00 94 1019.0
20260507110529 48 0 0.0 0.0 0.00 0.00 0.00 94 1019.1
20260507110042 48 0 0.0 0.0 0.00 0.00 0.00 94 1019.0
20260507105528 48 0 0.0 0.0 0.00 0.00 0.00 94 1019.0
20260507105028 48 0 0.0 0.0 0.00 0.00 0.00 94 1019.0
20260507104543 48 0 0.0 0.0 0.00 0.00 0.00 94 1019.0
20260507104028 49 0 0.0 0.0 0.00 0.00 0.00 94 1019.0
20260507103528 49 0 0.0 0.0 0.00 0.00 0.00 94 1019.1
20260507103042 49 0 0.0 0.0 0.00 0.00 0.00 94 1019.1
20260507102528 49 0 0.0 0.0 0.00 0.00 0.00 93 1019.0
20260507102028 49 0 0.0 0.0 0.00 0.00 0.00 93 1019.1
20260507101544 49 0 0.0 0.0 0.00 0.00 0.00 94 1019.2
20260507101027 50 0 0.0 0.0 0.00 0.00 0.00 94 1019.1
20260507100530 50 0 0.0 0.0 0.00 0.00 0.00 94 1019.2
20260507100046 50 0 0.0 0.0 0.00 0.00 0.00 95 1019.3
20260507095527 50 0 0.0 0.0 0.00 0.00 0.00 94 1019.2
20260507095029 50 0 0.0 0.0 0.00 0.00 0.00 94 1019.2
20260507094549 49 0 0.0 0.0 0.00 0.00 0.00 93 1019.2
20260507094028 50 0 0.0 0.0 0.00 0.00 0.00 93 1019.2
20260507093531 50 0 0.0 0.0 0.00 0.00 0.00 93 1019.2
20260507093044 50 0 0.0 0.0 0.00 0.00 0.00 93 1019.3
20260507092527 50 0 0.0 0.0 0.00 0.00 0.00 93 1019.2
20260507092030 51 0 0.0 0.0 0.00 0.00 0.00 93 1019.3
20260507091538 51 0 0.0 0.0 0.00 0.00 0.00 93 1019.4
20260507091028 51 0 0.0 0.0 0.00 0.00 0.00 93 1019.5
20260507090528 51 0 0.0 0.0 0.00 0.00 0.00 93 1019.4
20260507090046 51 0 0.0 0.0 0.00 0.00 0.00 93 1019.5
20260507085529 51 0 0.0 0.0 0.00 0.00 0.00 93 1019.5
20260507085029 51 0 0.0 0.0 0.00 0.00 0.00 93 1019.5
20260507084543 51 0 0.0 0.0 0.00 0.00 0.00 93 1019.5
20260507084028 51 0 0.0 0.0 0.00 0.00 0.00 93 1019.6
20260507083529 51 0 0.0 0.0 0.00 0.00 0.00 93 1019.7
20260507083042 51 0 0.0 0.0 0.00 0.00 0.00 92 1019.7
20260507082528 51 0 0.0 0.0 0.00 0.00 0.00 92 1019.7
20260507082026 51 0 0.0 0.0 0.00 0.00 0.00 92 1019.8
20260507081547 51 0 0.0 0.0 0.00 0.00 0.00 92 1019.6
20260507081027 51 0 0.0 0.0 0.00 0.00 0.00 92 1019.8
20260507080530 51 0 0.0 0.0 0.00 0.00 0.00 91 1019.8
20260507080043 51 0 0.0 0.0 0.00 0.00 0.00 92 1019.8
20260507075529 52 0 0.0 0.0 0.00 0.00 0.00 92 1019.7
20260507075029 52 0 0.0 0.0 0.00 0.00 0.00 92 1019.7
20260507074546 52 0 0.0 0.0 0.00 0.00 0.00 93 1019.6
20260507074028 51 0 0.0 0.0 0.00 0.00 0.00 92 1019.7
20260507073529 51 0 0.0 0.0 0.00 0.00 0.00 92 1019.7
20260507073104 51 0 0.0 0.0 0.00 0.00 0.00 91 1019.8
20260507072529 51 0 0.0 0.0 0.00 0.00 0.00 91 1019.7
20260507072027 51 0 0.0 0.0 0.00 0.00 0.00 91 1019.7
20260507071544 51 0 0.0 0.0 0.00 0.00 0.00 90 1019.6
20260507071025 51 0 0.0 0.0 0.00 0.00 0.00 90 1019.6
20260507070529 51 0 0.0 0.0 0.00 0.00 0.00 90 1019.6
20260507070043 52 0 0.0 0.0 0.00 0.00 0.00 90 1019.5
20260507065530 52 0 0.0 0.0 0.00 0.00 0.00 90 1019.5
20260507065030 52 0 0.0 0.0 0.00 0.00 0.00 89 1019.6
20260507064548 52 0 0.0 0.0 0.00 0.00 0.00 89 1019.6
20260507064028 52 0 0.0 0.0 0.00 0.00 0.00 89 1019.5
20260507063528 52 0 0.0 0.0 0.00 0.00 0.00 89 1019.5
20260507063052 52 0 0.0 0.0 0.00 0.00 0.00 89 1019.5
20260507062531 53 0 0.0 0.0 0.00 0.00 0.00 88 1019.5
20260507062028 53 0 0.0 0.0 0.00 0.00 0.00 88 1019.4
20260507061541 53 0 0.0 0.0 0.00 0.00 0.00 88 1019.4
20260507061027 53 0 0.0 0.0 0.00 0.00 0.00 88 1019.2
20260507060528 53 0 0.0 0.0 0.00 0.00 0.00 88 1019.2
20260507060044 53 0 0.0 0.0 0.00 0.00 0.00 87 1019.3
20260507055529 54 0 0.0 0.0 0.00 0.00 0.00 87 1019.3
20260507055028 54 0 0.0 0.0 0.00 0.00 0.00 87 1019.3
20260507054542 54 0 0.0 0.0 0.00 0.00 0.00 86 1019.2
20260507054032 54 0 0.0 0.0 0.00 0.00 0.00 86 1019.2
20260507053530 55 0 0.0 0.0 0.00 0.00 0.00 85 1019.1
20260507053042 55 0 0.0 0.0 0.00 0.00 0.00 85 1019.1
20260507052528 55 0 0.0 0.0 0.00 0.00 0.00 85 1019.2
20260507052031 56 0 0.0 0.0 0.00 0.00 0.00 84 1019.1
20260507051542 56 0 0.0 0.0 0.00 0.00 0.00 84 1019.2
20260507051032 56 0 0.0 0.0 0.00 0.00 0.00 85 1019.2
20260507050528 56 0 0.0 0.0 0.00 0.00 0.00 84 1019.2
20260507050043 56 0 0.0 0.0 0.00 0.00 0.00 82 1019.1
20260507045528 56 0 0.0 0.0 0.00 0.00 0.00 82 1019.2
20260507045028 57 0 0.0 0.0 0.00 0.00 0.00 81 1019.0
20260507044541 57 0 0.0 0.0 0.00 0.00 0.00 80 1018.9
20260507044030 58 0 0.0 0.0 0.00 0.00 0.00 79 1018.9
20260507043528 58 0 0.0 0.0 0.00 0.00 0.00 80 1018.7
20260507043047 58 0 0.0 0.0 0.00 0.00 0.00 77 1018.7
20260507042527 59 0 0.0 0.0 0.00 0.00 0.00 78 1018.6
20260507042028 59 0 0.0 0.0 0.00 0.00 0.00 77 1018.6
20260507041547 60 0 0.0 0.0 0.00 0.00 0.00 76 1018.6
20260507041028 60 0 0.0 0.0 0.00 0.00 0.00 76 1018.5
20260507040530 60 0 0.0 0.0 0.00 0.00 0.00 75 1018.4
20260507040044 60 0 0.0 0.0 0.00 0.00 0.00 74 1018.3
20260507035528 61 0 0.0 0.0 0.00 0.00 0.00 74 1018.3
20260507035028 61 0 0.0 0.0 0.00 0.00 0.00 73 1018.3
20260507034557 62 0 0.0 0.0 0.00 0.00 0.00 72 1018.3
20260507034029 62 0 0.0 0.0 0.00 0.00 0.00 72 1018.1
20260507033529 62 0 0.0 0.0 0.00 0.00 0.00 71 1018.1
20260507033101 63 0 0.0 0.0 0.00 0.00 0.00 70 1018.1
20260507032528 63 0 0.0 0.0 0.00 0.00 0.00 70 1018.1
20260507032028 63 0 0.0 0.0 0.00 0.00 0.00 69 1018.1
20260507031543 64 0 0.0 0.0 0.00 0.00 0.00 68 1018.0
20260507031028 64 0 0.0 0.0 0.00 0.00 0.00 68 1018.0
20260507030529 65 0 0.0 0.0 0.00 0.00 0.00 66 1017.8
20260507030042 65 0 0.0 0.0 0.00 0.00 0.00 65 1017.7
20260507025528 66 0 0.0 1.0 0.00 0.00 0.00 64 1017.7
20260507025028 66 0 0.0 4.0 0.00 0.00 0.00 63 1017.7
20260507024551 66 0 0.0 4.0 0.00 0.00 0.00 62 1017.5
20260507024028 67 139 0.0 4.0 0.00 0.00 0.00 61 1017.3
20260507023528 67 0 1.0 4.0 0.00 0.00 0.00 60 1017.3
20260507023044 68 201 1.0 4.0 0.00 0.00 0.00 60 1017.3
20260507022528 68 0 1.0 4.0 0.00 0.00 0.00 59 1017.3
20260507022032 68 0 0.0 3.0 0.00 0.00 0.00 59 1017.3
20260507021542 69 123 1.0 3.0 0.00 0.00 0.00 58 1017.3
20260507021028 69 205 1.0 6.0 0.00 0.00 0.00 58 1017.3
20260507020529 69 0 0.0 6.0 0.00 0.00 0.00 57 1017.2
20260507020044 70 148 0.0 4.0 0.00 0.00 0.00 57 1017.2
20260507015528 70 250 1.0 4.0 0.00 0.00 0.00 56 1017.3
20260507015028 70 240 1.0 4.0 0.00 0.00 0.00 55 1017.2
20260507014542 71 224 0.0 4.0 0.00 0.00 0.00 55 1017.2
20260507014028 71 124 1.0 6.0 0.00 0.00 0.00 54 1017.2
20260507013528 72 0 0.0 6.0 0.00 0.00 0.00 54 1017.1
20260507013050 72 231 2.0 7.0 0.00 0.00 0.00 52 1017.1
20260507012529 73 152 2.0 7.0 0.00 0.00 0.00 51 1017.2
20260507012029 74 267 1.0 4.0 0.00 0.00 0.00 49 1017.1
20260507011543 76 218 0.0 3.0 0.00 0.00 0.00 48 1017.1
20260507011027 77 215 1.0 3.0 0.00 0.00 0.00 47 1017.1
20260507010530 77 222 1.0 5.0 0.00 0.00 0.00 47 1017.0
20260507010048 77 110 0.0 5.0 0.00 0.00 0.00 47 1017.0
20260507005528 77 332 2.0 5.0 0.00 0.00 0.00 47 1016.9
20260507005029 77 0 1.0 7.0 0.00 0.00 0.00 46 1016.8
20260507004542 78 170 2.0 7.0 0.00 0.00 0.00 46 1016.8
20260507004028 78 252 1.0 6.0 0.00 0.00 0.00 45 1016.8
20260507003529 78 253 1.0 5.0 0.00 0.00 0.00 45 1016.8
20260507003042 78 283 1.0 7.0 0.00 0.00 0.00 45 1016.8
20260507002528 79 241 1.0 7.0 0.00 0.00 0.00 44 1016.7
20260507002029 79 245 1.0 4.0 0.00 0.00 0.00 44 1016.6
20260507001600 79 32 1.0 5.0 0.00 0.00 0.00 44 1016.6
20260507001028 80 240 1.0 6.0 0.00 0.00 0.00 44 1016.6
20260507000528 80 263 2.0 6.0 0.00 0.00 0.00 43 1016.5
20260507000047 80 250 1.0 6.0 0.00 0.00 0.00 43 1016.4
20260506235530 81 266 1.0 6.0 0.00 0.00 0.00 43 1016.5
20260506235028 81 255 1.0 6.0 0.00 0.00 0.00 44 1016.4
20260506234552 81 86 2.0 6.0 0.00 0.00 0.00 43 1016.5
20260506234028 81 233 1.0 6.0 0.00 0.00 0.00 43 1016.5
20260506233529 81 67 2.0 7.0 0.00 0.00 0.00 43 1016.4
20260506233042 82 56 2.0 7.0 0.00 0.00 0.00 42 1016.5
20260506232530 82 136 2.0 5.0 0.00 0.00 0.00 42 1016.5
20260506232029 82 82 1.0 6.0 0.00 0.00 0.00 42 1016.5
20260506231540 82 242 2.0 7.0 0.00 0.00 0.00 43 1016.5
20260506231029 82 150 2.0 7.0 0.00 0.00 0.00 43 1016.6
20260506230528 82 79 2.0 7.0 0.00 0.00 0.00 43 1016.6
20260506230039 82 223 1.0 7.0 0.00 0.00 0.00 43 1016.7
20260506225531 82 249 2.0 7.0 0.00 0.00 0.00 43 1016.7
20260506225028 82 202 2.0 6.0 0.00 0.00 0.00 43 1016.8
20260506224557 82 245 2.0 5.0 0.00 0.00 0.00 42 1017.0
20260506224027 82 217 2.0 5.0 0.00 0.00 0.00 42 1017.1
20260506223527 82 242 1.0 6.0 0.00 0.00 0.00 43 1017.1
20260506223042 81 263 2.0 6.0 0.00 0.00 0.00 43 1017.2
20260506222529 82 134 2.0 6.0 0.00 0.00 0.00 42 1017.2
20260506222029 82 210 1.0 6.0 0.00 0.00 0.00 42 1017.3
20260506221539 82 224 1.0 6.0 0.00 0.00 0.00 42 1017.3
20260506221028 82 289 2.0 6.0 0.00 0.00 0.00 43 1017.4
20260506220528 82 82 2.0 5.0 0.00 0.00 0.00 42 1017.4
20260506220051 83 130 1.0 5.0 0.00 0.00 0.00 41 1017.5
20260506215528 82 73 1.0 4.0 0.00 0.00 0.00 42 1017.6
20260506215028 81 228 1.0 5.0 0.00 0.00 0.00 37 1017.7
20260506214537 81 323 2.0 7.0 0.00 0.00 0.00 39 1017.8
20260506214033 81 289 2.0 7.0 0.00 0.00 0.00 38 1017.8